Location: Newark
(34.1333°N, 7.9667°W)
Time: 03:24:07
(UTC+00:00)

Transit 2A - Pass Details

Date: 13 June 2021
Orbit: 598 x 960 km, 66.7° (Epoch: 30 July)

Event Time Altitude Azimuth Distance (km) Brightness Sun altitude
Rises 04:41:28 0° 320° (NW) 3,116 9.1 -7.6°
Reaches altitude 10° 04:43:57 10° 310° (NW) 2,250 8.3 -7.1°
Maximum altitude 04:48:26 31° 250° (WSW) 1,367 6.8 -6.4°
Drops below altitude 10° 04:53:18 10° 190° (S) 2,453 8.2 -5.5°
Sets 04:56:08 0° 180° (S) 3,444 9.1 -5.0°
